Weather History for North Platte, NE

Change the Weather History Date:

Wednesday, February 13, 2013

  Actual Average Record
Temperature  
Mean Temperature 33 °F 28 °F  
Max Temperature 49 °F 42 °F 70 °F (1967)
Min Temperature 17 °F 14 °F -27 °F (1905)
Degree Days  
Heating Degree Days 32 37  
Month to date heating degree days 400 493  
Since 1 July heating degree days 4355 4513  
Cooling Degree Days 0 0  
Month to date cooling degree days 0 0  
Year to date cooling degree days 0 0  
Moisture  
Dew Point 23 °F    
Average Humidity 69    
Maximum Humidity 91    
Minimum Humidity 46    
Precipitation  
Precipitation 0.00 in 0.02 in 0.46 in (2009)
Month to date precipitation 0.47 0.18  
Year to date precipitation 0.71 0.52  
Snow  
Snow 0.00 in 0.20 in 8.30 in (2009)
Month to date snowfall 4.4 2.4  
Since 1 July snowfall 13.3 18.0  
Snow Depth T in    
Sea Level Pressure  
Sea Level Pressure 29.95 in    
Wind  
Wind Speed 12 mph (WNW)    
Max Wind Speed 24 mph    
Max Gust Speed 31 mph    
Visibility 10 miles    
Events      
T = Trace of Precipitation, MM = Missing Value Source: NWS Daily Summary

Daily Weather History Graph

Daily Weather History Graph

Search for Another Location

Airport:

Trip Planner

Search our weather history database for the weather conditions in past years. The results will help you decide how hot, cold, wet, or windy it might be!

Date:

Astronomy

Feb. 13, 2013 Rise Set
Actual Time 7:39 AM CST 6:14 PM CST
Civil Twilight 7:11 AM CST 6:43 PM CST
Nautical Twilight 6:38 AM CST 7:15 PM CST
Astronomical Twilight 6:06 AM CST 7:47 PM CST
Moon 9:07 AM CST (2/13) 10:22 PM CST (2/13)
Length of Visible Light 11h 32m
Length of Day
10h 35m
Waxing Crescent, 14% of the Moon is Illuminated
Feb 13
Waxing Crescent
Feb 17
First Quarter
Feb 25
Full
Mar 4
Last Quarter
Mar 11
New

Hourly Weather History & Observations

Time (CST) Temp. Windchill Dew Point Humidity Pressure Visibility Wind Dir Wind Speed Gust Speed Precip Events Conditions
12:53 AM 19.9 °F 12.1 °F 17.1 °F 89% 30.05 in 10.0 mi NW 5.8 mph - N/A   Clear
1:53 AM 24.1 °F 15.2 °F 18.0 °F 77% 30.03 in 10.0 mi WNW 8.1 mph - N/A   Scattered Clouds
2:53 AM 24.1 °F 14.4 °F 17.1 °F 75% 30.01 in 10.0 mi West 9.2 mph - N/A   Scattered Clouds
3:53 AM 25.0 °F 14.8 °F 17.1 °F 72% 29.99 in 10.0 mi WNW 10.4 mph - N/A   Clear
4:53 AM 25.0 °F 15.5 °F 17.1 °F 72% 29.97 in 10.0 mi WNW 9.2 mph - N/A   Clear
5:53 AM 21.0 °F 11.4 °F 15.1 °F 78% 29.98 in 10.0 mi WNW 8.1 mph - N/A   Clear
6:53 AM 19.0 °F 8.2 °F 14.0 °F 81% 29.99 in 10.0 mi WNW 9.2 mph - N/A   Clear
7:53 AM 24.1 °F 13.7 °F 17.1 °F 75% 29.97 in 10.0 mi West 10.4 mph - N/A   Clear
8:53 AM 27.0 °F 16.7 °F 18.0 °F 69% 29.98 in 10.0 mi West 11.5 mph - N/A   Clear
9:53 AM 30.9 °F 20.2 °F 19.9 °F 64% 29.97 in 10.0 mi West 15.0 mph - N/A   Clear
10:53 AM 36.0 °F 26.7 °F 21.9 °F 57% 29.96 in 10.0 mi WNW 15.0 mph - N/A   Clear
11:53 AM 39.9 °F 30.5 °F 24.1 °F 53% 29.94 in 10.0 mi WNW 19.6 mph 28.8 mph N/A   Clear
12:53 PM 43.0 °F 34.2 °F 26.1 °F 51% 29.92 in 10.0 mi WNW 20.7 mph 26.5 mph N/A   Scattered Clouds
1:53 PM 45.0 °F 37.1 °F 27.0 °F 49% 29.88 in 10.0 mi WNW 19.6 mph 27.6 mph N/A   Mostly Cloudy
2:53 PM 46.9 °F - 28.0 °F 48% 29.87 in 10.0 mi WNW 20.7 mph 31.1 mph N/A   Clear
3:53 PM 48.0 °F - 28.0 °F 46% 29.86 in 10.0 mi WNW 15.0 mph - N/A   Clear
4:53 PM 48.0 °F - 28.0 °F 46% 29.85 in 10.0 mi WNW 18.4 mph - N/A   Clear
5:53 PM 44.1 °F 38.6 °F 27.0 °F 51% 29.87 in 10.0 mi WNW 10.4 mph - N/A   Clear
6:53 PM 34.0 °F 31.0 °F 26.1 °F 73% 29.90 in 10.0 mi WNW 3.5 mph - N/A   Scattered Clouds
7:53 PM 34.0 °F 28.8 °F 27.0 °F 75% 29.92 in 10.0 mi WNW 5.8 mph - N/A   Overcast
8:53 PM 34.0 °F 28.0 °F 26.1 °F 73% 29.95 in 10.0 mi NW 6.9 mph - N/A   Overcast
9:53 PM 36.0 °F 29.6 °F 28.9 °F 76% 29.96 in 10.0 mi WNW 8.1 mph - N/A   Mostly Cloudy
10:53 PM 34.0 °F 27.2 °F 28.9 °F 82% 29.97 in 10.0 mi WNW 8.1 mph - N/A   Mostly Cloudy
11:53 PM 30.9 °F 23.5 °F 27.0 °F 85% 30.00 in 10.0 mi NW 8.1 mph - N/A   Clear